Wind_Speed
17 18 18 18 17 15 13 12 10 9 9 7 6 6 5 5 5 5 5 4 5 5 5 5 5 6 6 7 7 7 7 7 6 6 6 5 5 6 5 5 5 6
19 19 20 19 18 16 14 12 11 9 8 7 6 6 5 5 5 5 6 5 5 5 5 6 6 7 7 7 7 8 7 7 7 7 7 7 6 6 6 6 5 6
19 20 20 19 18 16 15 13 12 10 8 7 7 7 6 6 5 6 6 6 6 6 6 6 6 7 8 8 8 8 8 8 8 8 8 8 7 7 7 7 6 6
19 20 19 18 17 17 16 14 13 11 9 8 8 8 7 6 6 6 6 7 7 6 6 6 6 7 8 8 9 9 9 9 9 9 9 8 9 8 8 8 7 7
20 21 18 16 16 17 17 15 14 12 10 9 9 8 8 7 6 6 7 7 7 6 6 6 6 7 7 8 8 8 9 9 9 10 9 9 9 9 9 8 7 6
21 21 18 16 16 18 18 16 15 13 11 10 10 9 9 8 7 8 8 8 8 7 6 6 6 6 6 6 7 7 8 9 9 10 9 8 8 8 8 8 8 7
21 21 19 18 17 18 19 18 17 15 13 11 11 10 9 9 8 8 9 9 8 8 8 7 7 6 6 6 6 6 6 7 8 8 8 8 7 7 7 8 9 9
22 23 21 20 20 19 20 20 18 17 15 13 12 11 10 9 9 9 9 9 9 9 8 8 7 6 6 5 5 4 4 4 4 5 6 7 7 7 7 7 8 9
23 24 23 22 21 21 22 22 21 20 17 16 14 13 13 12 10 10 10 10 10 9 8 7 6 6 5 4 3 2 2 2 3 4 4 6 6 6 6 7 7 8
25 25 24 23 22 22 24 25 24 23 21 19 18 16 15 14 13 12 11 11 11 10 9 8 6 5 3 3 3 3 4 4 4 5 6 6 7 6 6 7 7 7
25 26 26 25 24 24 26 26 25 24 23 22 21 19 17 16 15 14 13 12 12 11 11 9 6 5 5 5 6 6 6 6 6 7 7 8 9 9 9 8 8 8
24 26 28 27 27 27 27 26 25 26 26 26 26 24 22 18 16 16 15 14 13 13 12 9 8 7 7 7 7 8 8 9 9 8 8 9 10 10 10 10 11 11
23 24 25 23 25 26 26 26 27 29 30 31 32 29 24 21 20 18 17 15 14 14 12 11 10 9 9 9 9 9 10 11 11 11 10 10 11 10 10 11 12 14
21 22 20 18 22 25 25 26 29 31 33 35 35 31 24 22 23 21 18 17 16 15 14 13 12 10 10 10 10 10 11 12 13 13 12 11 12 11 11 11 13 16
16 18 17 18 22 22 22 25 28 31 34 36 35 31 26 23 23 22 21 20 18 17 16 15 14 13 12 12 12 12 11 12 14 14 13 12 13 13 13 14 15 17
10 11 12 13 16 16 17 21 24 27 31 35 35 31 25 21 20 21 22 22 20 19 18 16 16 16 14 14 14 13 12 13 14 14 12 13 14 14 14 14 15 17
9 9 9 10 10 10 12 14 15 17 21 25 26 25 21 19 18 20 21 21 21 20 19 18 19 18 17 16 15 14 13 13 14 15 13 13 15 15 14 14 15 15
11 10 10 10 10 11 12 12 13 14 15 17 19 21 20 18 18 18 18 17 18 19 19 21 21 20 19 18 16 16 14 14 15 16 15 14 15 15 13 13 14 14
11 12 11 11 11 12 13 13 13 15 17 17 17 19 20 18 17 17 17 17 18 20 22 23 23 23 22 20 19 18 17 16 16 17 16 15 14 14 14 13 13 13
10 11 11 10 10 10 11 12 13 15 17 16 15 16 17 17 18 18 19 19 20 21 23 24 24 24 23 21 21 21 20 19 18 17 16 15 14 15 15 15 15 14
10 11 11 10 9 9 10 12 14 15 15 15 14 14 16 17 18 19 19 20 20 21 22 23 23 23 22 22 23 23 22 21 20 18 17 15 15 17 18 18 18 17
11 11 11 11 10 11 11 12 14 15 15 15 15 16 18 20 19 19 19 20 20 21 21 21 22 22 22 23 24 24 24 22 20 19 18 17 18 19 19 20 21 21
12 12 12 12 12 13 13 14 15 16 17 18 19 20 22 21 19 18 19 20 20 21 21 21 22 22 22 24 25 24 23 21 19 19 18 18 19 20 20 21 22 22
11 11 12 13 13 14 15 16 16 16 17 19 20 21 20 19 17 18 19 19 19 20 22 22 22 22 22 24 24 23 21 19 18 18 18 18 20 22 22 23 23 23
12 12 13 13 13 14 16 17 17 17 17 17 18 19 18 17 16 18 19 19 19 21 22 22 21 21 22 23 23 23 21 19 18 18 18 19 21 22 23 23 23 23
14 14 15 15 15 15 16 16 17 17 17 17 17 17 17 17 18 19 20 21 22 23 22 22 21 21 21 22 22 22 20 19 18 18 19 20 22 23 23 23 23 23
Wind_Direction
188 181 176 172 167 164 163 162 161 159 158 156 162 173 179 176 176 176 172 168 168 166 165 162 158 155 153 149 146 143 141 139 139 141 146 150 155 161 171 186 199 207
187 183 179 174 171 169 170 171 171 168 164 160 164 172 178 177 174 173 168 166 170 171 168 165 161 155 149 144 139 136 134 135 140 150 157 162 166 168 171 178 188 199
187 185 181 177 177 178 179 178 176 174 171 165 164 168 173 174 172 168 162 159 161 165 165 162 158 151 145 142 138 135 135 135 140 151 156 162 170 174 179 184 187 194
187 186 184 182 184 185 184 181 180 180 176 167 167 170 173 173 167 159 152 149 147 150 154 151 148 144 140 138 136 135 137 140 146 150 152 158 164 166 173 181 187 194
190 191 193 196 194 189 186 183 182 184 178 168 167 167 165 164 155 146 140 136 134 137 142 143 142 140 137 135 134 135 138 144 150 150 153 162 164 163 166 168 170 183
195 201 207 209 202 194 190 184 182 184 178 169 167 164 159 154 147 139 132 130 132 136 141 147 148 146 142 139 137 140 145 150 153 152 153 159 162 164 168 167 165 172
205 208 212 215 211 203 196 188 184 185 181 172 168 165 158 151 147 142 136 136 139 141 144 149 153 153 149 146 143 146 152 154 156 155 153 157 163 168 172 173 172 173
213 212 213 218 217 208 198 192 189 189 184 177 173 172 166 159 157 154 150 148 148 148 151 153 157 158 155 153 151 155 165 165 164 164 160 165 173 176 177 178 180 180
216 214 216 221 221 211 200 195 194 194 190 184 182 181 176 170 170 170 166 163 161 160 162 163 167 170 166 162 160 171 199 209 208 204 191 184 187 187 186 187 190 192
214 216 219 221 220 213 204 198 195 195 194 189 187 185 180 177 179 183 183 180 177 177 179 180 182 190 202 209 210 216 226 227 223 224 221 213 208 205 203 202 200 204
212 217 222 220 215 209 205 202 198 196 195 193 190 187 181 182 186 190 193 192 189 192 195 195 200 217 234 245 246 242 241 241 237 233 232 228 224 219 216 215 213 215
211 217 222 218 215 212 207 203 202 203 202 201 200 193 182 181 191 197 199 199 201 206 208 210 216 227 241 253 260 262 259 257 255 246 235 229 226 223 221 225 226 225
215 222 224 217 219 222 214 207 209 211 211 212 213 206 192 185 192 202 205 205 210 217 219 225 230 234 246 253 256 259 257 257 258 254 244 236 232 226 223 226 229 230
223 231 232 225 226 224 213 211 216 217 219 224 224 219 215 205 197 201 210 211 215 222 224 231 238 240 245 244 240 241 244 249 253 252 249 246 244 240 237 235 233 232
220 229 231 231 231 226 217 219 226 227 228 231 228 226 230 221 201 199 210 213 218 226 228 231 236 240 242 239 236 238 246 253 248 242 245 251 252 252 254 252 244 235
202 211 213 219 226 229 226 227 234 238 240 242 239 232 226 216 202 200 209 214 219 225 229 234 238 243 245 241 241 247 259 260 241 227 236 252 256 254 254 255 249 238
186 191 193 199 209 215 218 218 224 231 233 235 232 222 210 205 207 211 214 218 220 220 225 235 241 245 245 243 244 251 264 262 240 227 233 248 253 251 248 249 248 240
200 203 203 206 212 216 218 218 215 210 204 200 203 207 208 210 215 221 224 224 221 219 224 233 239 243 244 244 246 251 259 260 246 238 240 247 250 248 246 243 239 234
209 213 212 213 217 219 222 225 221 209 201 199 202 208 212 213 215 220 224 225 223 222 226 231 235 239 241 244 247 250 255 258 254 250 250 252 251 247 242 237 229 223
214 218 218 216 218 220 221 223 221 210 202 200 198 197 201 207 213 218 222 225 225 224 225 228 232 236 239 243 246 249 253 257 259 259 256 252 250 245 238 231 226 221
218 222 224 221 218 218 217 215 212 210 207 203 199 199 205 211 215 218 220 223 224 224 225 227 230 235 240 244 246 249 253 257 260 261 257 252 248 243 236 230 227 224
216 217 222 219 212 209 209 207 206 208 211 210 210 214 216 217 218 221 223 223 224 226 228 230 233 237 241 245 248 252 255 258 260 259 256 250 243 239 235 229 226 223
220 216 219 222 221 220 218 212 207 209 213 215 219 223 222 218 218 223 226 226 227 230 232 234 236 239 241 245 249 251 253 255 255 254 252 245 238 235 233 230 226 224
241 228 221 219 222 227 228 221 213 212 219 223 228 235 237 233 228 230 233 232 233 237 240 239 240 240 241 244 247 249 249 248 248 247 245 238 233 232 231 230 228 229
258 249 237 226 217 216 220 222 220 219 224 229 234 241 246 245 240 238 239 238 237 240 243 244 243 240 239 241 244 245 243 240 239 241 238 233 232 232 231 230 230 232
256 255 253 248 240 230 223 222 223 223 226 231 234 236 238 239 237 235 236 238 239 240 241 242 240 238 237 239 240 241 241 237 234 237 237 234 233 233 233 233 234 236
Height
3134 3135 3137 3138 3139 3139 3140 3142 3142 3143 3144 3144 3145 3144 3144 3144 3144 3144 3144 3144 3144 3143 3143 3143 3143 3144 3144 3144 3144 3144 3144 3144 3144 3144 3145 3145 3145 3146 3146 3146 3146 3147
3134 3135 3136 3137 3138 3139 3140 3141 3142 3143 3143 3144 3144 3144 3144 3144 3144 3144 3144 3143 3144 3144 3144 3144 3144 3144 3144 3144 3144 3144 3145 3145 3145 3145 3145 3145 3146 3146 3146 3146 3147 3147
3133 3135 3136 3137 3139 3140 3140 3141 3142 3142 3143 3143 3144 3144 3144 3144 3144 3144 3144 3144 3144 3144 3144 3144 3145 3145 3145 3145 3145 3145 3145 3145 3145 3145 3145 3146 3146 3146 3146 3147 3147 3147
3133 3134 3136 3137 3139 3139 3140 3141 3141 3142 3142 3143 3143 3143 3144 3143 3143 3144 3144 3144 3144 3144 3144 3145 3145 3145 3146 3146 3146 3146 3146 3146 3146 3146 3146 3146 3146 3147 3147 3147 3147 3148
3132 3134 3135 3136 3138 3139 3139 3140 3140 3141 3142 3142 3143 3143 3143 3143 3143 3143 3144 3144 3144 3145 3145 3145 3145 3146 3146 3146 3146 3147 3147 3147 3147 3147 3147 3147 3147 3147 3148 3148 3148 3148
3131 3132 3134 3135 3136 3137 3138 3139 3139 3140 3141 3142 3142 3142 3143 3143 3143 3143 3143 3144 3144 3145 3145 3145 3146 3146 3146 3147 3147 3147 3147 3147 3147 3147 3148 3148 3148 3148 3149 3149 3149 3149
3129 3130 3132 3133 3135 3136 3137 3138 3139 3139 3140 3141 3141 3142 3142 3143 3143 3143 3143 3144 3144 3145 3145 3145 3146 3146 3146 3147 3147 3147 3147 3148 3148 3148 3148 3149 3149 3149 3149 3149 3149 3149
3126 3128 3130 3131 3133 3134 3136 3137 3138 3138 3139 3140 3141 3141 3142 3142 3143 3143 3143 3144 3144 3144 3145 3145 3145 3146 3146 3146 3147 3147 3147 3148 3148 3148 3149 3149 3149 3149 3149 3149 3149 3150
3124 3126 3127 3129 3131 3132 3134 3136 3137 3137 3137 3138 3139 3139 3140 3141 3142 3143 3143 3143 3144 3144 3145 3145 3145 3145 3146 3146 3147 3147 3147 3148 3148 3148 3149 3149 3149 3150 3150 3150 3150 3150
3121 3123 3125 3127 3129 3131 3133 3134 3134 3135 3135 3136 3137 3138 3138 3139 3141 3142 3142 3143 3144 3144 3144 3144 3145 3145 3146 3146 3146 3147 3147 3147 3148 3148 3149 3149 3149 3150 3150 3151 3151 3151
3120 3122 3123 3125 3127 3129 3130 3132 3133 3133 3133 3134 3135 3136 3136 3138 3139 3140 3141 3142 3143 3144 3144 3144 3145 3145 3145 3145 3146 3146 3146 3146 3147 3147 3148 3148 3149 3149 3149 3150 3150 3151
3119 3120 3121 3123 3124 3126 3128 3130 3132 3132 3132 3132 3132 3133 3133 3135 3137 3139 3140 3141 3142 3143 3144 3144 3145 3145 3145 3145 3145 3146 3146 3146 3146 3146 3146 3147 3147 3148 3148 3149 3149 3149
3117 3118 3119 3121 3123 3123 3125 3128 3129 3129 3129 3129 3129 3129 3130 3132 3134 3136 3138 3139 3141 3142 3143 3144 3144 3145 3145 3145 3145 3145 3145 3145 3145 3145 3145 3146 3146 3147 3147 3148 3148 3148
3115 3116 3117 3119 3121 3121 3123 3125 3126 3127 3127 3125 3126 3127 3129 3130 3132 3134 3136 3137 3139 3140 3142 3143 3143 3144 3144 3144 3144 3144 3144 3144 3144 3144 3145 3145 3145 3145 3146 3146 3147 3146
3114 3115 3116 3117 3119 3119 3121 3123 3124 3125 3125 3124 3124 3126 3128 3129 3129 3131 3133 3134 3136 3138 3139 3140 3142 3142 3143 3143 3143 3143 3143 3143 3143 3143 3144 3144 3144 3144 3144 3144 3145 3144
3112 3114 3115 3116 3117 3118 3119 3121 3123 3123 3123 3122 3123 3124 3126 3127 3127 3128 3129 3131 3133 3135 3137 3138 3139 3140 3141 3141 3141 3141 3141 3141 3141 3142 3142 3143 3143 3143 3142 3142 3142 3142
3112 3113 3114 3115 3116 3117 3118 3120 3120 3121 3120 3119 3120 3122 3124 3124 3125 3126 3127 3129 3130 3132 3134 3136 3137 3138 3139 3139 3139 3139 3139 3139 3139 3139 3140 3140 3141 3141 3140 3140 3140 3140
3111 3113 3114 3115 3116 3116 3117 3118 3119 3119 3118 3118 3119 3120 3122 3122 3123 3124 3126 3127 3128 3129 3131 3133 3134 3135 3136 3136 3136 3136 3136 3137 3137 3137 3137 3138 3138 3138 3138 3138 3138 3138
3110 3111 3112 3113 3114 3114 3115 3115 3116 3117 3116 3117 3117 3118 3119 3121 3122 3122 3123 3124 3125 3127 3128 3130 3131 3132 3133 3133 3134 3134 3134 3134 3135 3135 3135 3135 3136 3136 3136 3136 3136 3136
3108 3109 3110 3111 3111 3112 3113 3113 3113 3114 3115 3115 3116 3116 3118 3119 3120 3120 3121 3122 3123 3124 3126 3127 3128 3129 3130 3130 3131 3131 3132 3132 3132 3133 3133 3133 3134 3134 3135 3135 3135 3135
3106 3107 3108 3109 3110 3111 3111 3111 3112 3112 3113 3114 3114 3115 3116 3117 3117 3118 3119 3120 3121 3122 3123 3124 3125 3126 3127 3127 3128 3128 3128 3129 3129 3130 3130 3131 3131 3131 3132 3133 3134 3134
3106 3106 3107 3108 3108 3109 3110 3110 3111 3111 3112 3113 3114 3114 3114 3114 3115 3115 3116 3117 3118 3119 3120 3121 3122 3123 3123 3124 3124 3124 3125 3126 3127 3127 3127 3128 3128 3129 3130 3131 3131 3132
3104 3105 3106 3107 3107 3108 3108 3108 3109 3110 3111 3112 3112 3112 3112 3112 3112 3112 3113 3114 3115 3116 3117 3117 3119 3119 3120 3120 3120 3121 3122 3123 3124 3124 3124 3125 3126 3126 3127 3128 3128 3129
3102 3103 3104 3104 3105 3105 3105 3106 3107 3108 3109 3109 3110 3110 3111 3111 3110 3110 3111 3112 3113 3113 3114 3114 3115 3116 3116 3116 3116 3117 3118 3120 3120 3121 3121 3122 3123 3124 3125 3125 3126 3127
3099 3100 3100 3101 3102 3103 3103 3104 3104 3105 3105 3106 3107 3108 3108 3109 3109 3109 3109 3109 3110 3110 3111 3111 3112 3113 3113 3113 3113 3114 3115 3116 3117 3118 3119 3119 3120 3121 3122 3123 3123 3124
3097 3097 3097 3098 3099 3100 3100 3101 3102 3102 3103 3103 3104 3105 3105 3106 3106 3106 3107 3107 3107 3108 3108 3109 3110 3110 3111 3111 3111 3111 3112 3113 3115 3115 3116 3117 3117 3118 3119 3120 3120 3121